KD8OUK Weather Reports


time (UTC)temp
C
wind
direction
speed
KPH
gust
KPH
rain 1hr
cm
rain 24hr
cm
rain mn
cm
humidity
%
barometer
mb
20260903011525 26 207 3.2 4.8 0.00 0.00 0.00 86 1017.4
20260903011017 26 207 1.6 4.8 0.00 0.00 0.00 86 1017.3
20260903010527 26 222 3.2 4.8 0.00 0.00 0.00 86 1017.3
20260903010019 27 225 0.0 3.2 0.00 0.00 0.00 85 1017.2
20260903005529 27 227 1.6 3.2 0.00 0.00 0.00 85 1017.2
20260903005021 27 238 1.6 3.2 0.00 0.00 0.00 84 1017.2
20260903004532 27 231 1.6 3.2 0.00 0.00 0.00 84 1017.1
20260903004024 27 220 1.6 3.2 0.00 0.00 0.00 83 1017.1
20260903003516 27 215 1.6 4.8 0.00 0.00 0.00 82 1017.1
20260903003026 27 213 1.6 4.8 0.00 0.00 0.00 82 1017.1
20260903002518 28 219 1.6 4.8 0.00 0.00 0.00 80 1017.1
20260903002030 28 0.0 0.0 0.00 0.00 0.00 79 1017.0
20260903001521 28 203 0.0 3.2 0.00 0.00 0.00 79 1017.1
20260903001031 29 225 1.6 3.2 0.00 0.00 0.00 77 1017.1
20260903000523 29 206 1.6 4.8 0.00 0.00 0.00 75 1017.1
20260903000015 30 221 3.2 6.4 0.00 0.00 0.00 74 1017.0
20260902235526 30 213 3.2 6.4 0.00 0.00 0.00 73 1017.0
20260902235018 31 233 3.2 6.4 0.00 0.00 0.00 71 1017.0
20260902234528 31 227 3.2 4.8 0.00 0.00 0.00 72 1017.0
20260902234020 30 217 3.2 6.4 0.00 0.00 0.00 74 1017.0
20260902233525 30 239 3.2 9.7 0.00 0.00 0.00 74 1017.0
20260902233024 30 226 3.2 4.8 0.00 0.00 0.00 73 1017.0
20260902232515 31 243 4.8 8.0 0.00 0.00 0.00 71 1017.0
20260902232020 31 237 3.2 8.0 0.00 0.00 0.00 72 1017.0
20260902231518 31 230 4.8 8.0 0.00 0.00 0.00 71 1017.0
20260902231016 31 219 4.8 6.4 0.00 0.00 0.00 70 1016.9
20260902230520 31 242 4.8 8.0 0.00 0.00 0.00 69 1016.9
20260902230030 32 238 4.8 8.0 0.00 0.00 0.00 68 1017.0
20260902225522 32 241 4.8 8.0 0.00 0.00 0.00 68 1017.0
20260902225033 32 250 4.8 8.0 0.00 0.00 0.00 67 1017.1
20260902224525 32 248 3.2 4.8 0.00 0.00 0.00 67 1017.1
20260902224017 32 226 4.8 8.0 0.00 0.00 0.00 66 1017.1
20260902223527 32 241 4.8 11.3 0.00 0.00 0.00 66 1017.1
20260902223020 32 218 4.8 8.0 0.00 0.00 0.00 65 1017.1
20260902222530 33 246 6.4 9.7 0.00 0.00 0.00 65 1017.1
20260902222022 33 244 6.4 9.7 0.00 0.00 0.00 64 1017.1
20260902221532 33 255 6.4 9.7 0.00 0.00 0.00 63 1017.1
20260902221025 33 246 4.8 8.0 0.00 0.00 0.00 63 1017.1
20260902220517 33 260 6.4 9.7 0.00 0.00 0.00 61 1017.1
20260902220023 33 244 6.4 12.9 0.00 0.00 0.00 62 1017.0
20260902215532 33 244 4.8 8.0 0.00 0.00 0.00 63 1017.0
20260902215024 33 243 6.4 9.7 0.00 0.00 0.00 61 1017.1
20260902214517 34 227 6.4 12.9 0.00 0.00 0.00 61 1017.1
20260902214027 34 211 6.4 8.0 0.00 0.00 0.00 61 1017.1
20260902213519 34 235 6.4 11.3 0.00 0.00 0.00 60 1017.2
20260902213029 34 218 6.4 9.7 0.00 0.00 0.00 60 1017.2
20260902212521 34 229 8.0 11.3 0.00 0.00 0.00 59 1017.2
20260902212032 35 229 6.4 11.3 0.00 0.00 0.00 60 1017.2
20260902211524 35 242 6.4 11.3 0.00 0.00 0.00 58 1017.3
20260902211016 35 262 6.4 9.7 0.00 0.00 0.00 58 1017.3
20260902210527 35 233 6.4 9.7 0.00 0.00 0.00 59 1017.3
20260902210018 35 233 6.4 11.3 0.00 0.00 0.00 58 1017.3
20260902205529 35 233 6.4 11.3 0.00 0.00 0.00 57 1017.3
20260902205021 35 252 6.4 11.3 0.00 0.00 0.00 56 1017.5
20260902204525 35 233 6.4 12.9 0.00 0.00 0.00 55 1017.6
20260902204023 35 283 6.4 9.7 0.00 0.00 0.00 56 1017.6
20260902203515 35 265 8.0 12.9 0.00 0.00 0.00 57 1017.6
20260902203020 35 256 8.0 11.3 0.00 0.00 0.00 56 1017.6
20260902202518 35 213 8.0 12.9 0.00 0.00 0.00 57 1017.8
20260902202016 35 221 6.4 11.3 0.00 0.00 0.00 57 1017.8
20260902201520 35 272 6.4 11.3 0.00 0.00 0.00 56 1017.9
20260902201030 35 235 6.4 14.5 0.00 0.00 0.00 55 1018.0
20260902200522 35 230 6.4 9.7 0.00 0.00 0.00 57 1018.0
20260902200033 35 243 6.4 14.5 0.00 0.00 0.00 57 1018.2
20260902195525 35 201 9.7 12.9 0.00 0.00 0.00 56 1018.2
20260902195017 35 242 9.7 12.9 0.00 0.00 0.00 55 1018.2
20260902194528 35 239 6.4 9.7 0.00 0.00 0.00 56 1018.2
20260902194020 35 181 8.0 11.3 0.00 0.00 0.00 55 1018.2
20260902193530 35 249 6.4 8.0 0.00 0.00 0.00 57 1018.3
20260902193023 36 273 8.0 11.3 0.00 0.00 0.00 56 1018.3
20260902192533 35 255 6.4 9.7 0.00 0.00 0.00 58 1018.3
20260902192025 35 296 6.4 11.3 0.00 0.00 0.00 57 1018.3
20260902191517 35 239 8.0 12.9 0.00 0.00 0.00 57 1018.4
20260902191027 35 242 8.0 12.9 0.00 0.00 0.00 58 1018.6
20260902190520 35 249 6.4 11.3 0.00 0.00 0.00 58 1018.6
20260902190030 35 239 6.4 9.7 0.00 0.00 0.00 58 1018.6
20260902185522 35 236 6.4 9.7 0.00 0.00 0.00 59 1018.6
20260902185032 35 223 6.4 8.0 0.00 0.00 0.00 59 1018.6
20260902184524 35 241 8.0 14.5 0.00 0.00 0.00 56 1018.6
20260902184016 35 245 8.0 11.3 0.00 0.00 0.00 56 1018.6
20260902183527 35 253 6.4 9.7 0.00 0.00 0.00 61 1018.7
20260902183020 35 216 6.4 9.7 0.00 0.00 0.00 61 1018.7
20260902182529 35 265 6.4 12.9 0.00 0.00 0.00 59 1018.8
20260902182021 35 235 4.8 8.0 0.00 0.00 0.00 60 1018.8
20260902181532 35 223 4.8 8.0 0.00 0.00 0.00 59 1018.8
20260902181024 34 244 6.4 11.3 0.00 0.00 0.00 60 1018.9
20260902180516 34 221 6.4 14.5 0.00 0.00 0.00 61 1018.9
20260902180026 35 244 6.4 11.3 0.00 0.00 0.00 60 1019.0
20260902175518 34 220 6.4 11.3 0.00 0.00 0.00 61 1019.0
20260902175022 35 238 8.0 11.3 0.00 0.00 0.00 62 1019.1
20260902174523 34 257 4.8 8.0 0.00 0.00 0.00 63 1019.1
20260902174019 34 222 4.8 6.4 0.00 0.00 0.00 65 1019.2
20260902173517 34 243 4.8 8.0 0.00 0.00 0.00 63 1019.3
20260902173015 34 272 6.4 11.3 0.00 0.00 0.00 61 1019.3
20260902172525 34 305 6.4 9.7 0.00 0.00 0.00 61 1019.5
20260902172017 34 251 6.4 8.0 0.00 0.00 0.00 63 1019.5
20260902171528 34 258 6.4 9.7 0.00 0.00 0.00 63 1019.5
20260902171020 33 256 4.8 8.0 0.00 0.00 0.00 64 1019.5
20260902170530 33 246 6.4 9.7 0.00 0.00 0.00 62 1019.6
20260902170023 33 283 8.0 11.3 0.00 0.00 0.00 62 1019.7
20260902165515 33 319 6.4 11.3 0.00 0.00 0.00 62 1019.7
20260902165025 33 315 6.4 12.9 0.00 0.00 0.00 65 1019.7
20260902164519 32 234 4.8 9.7 0.00 0.00 0.00 65 1019.7
20260902164054 32 135 4.8 4.8 0.00 0.00 0.00 65 1019.7
20260902162554 33 347 6.4 6.4 0.00 0.00 0.00 67 1019.7
20260902161534 32 224 4.8 8.0 0.00 0.00 0.00 69 1019.7
20260902140518 25 268 4.8 6.4 0.00 0.00 0.00 90 1019.7
20260902140029 25 217 4.8 6.4 0.00 0.00 0.00 91 1019.8
20260902135521 25 247 3.2 6.4 0.00 0.00 0.00 92 1019.8
20260902135031 25 229 3.2 6.4 0.00 0.00 0.00 93 1019.7
20260902134523 25 233 3.2 8.0 0.00 0.00 0.00 93 1019.6
20260902134015 24 244 3.2 6.4 0.00 0.00 0.00 94 1019.7
20260902133526 24 244 3.2 4.8 0.00 0.00 0.00 96 1019.7
20260902133019 24 272 3.2 6.4 0.00 0.00 0.00 97 1019.7
20260902132528 23 247 3.2 6.4 0.00 0.00 0.00 98 1019.8
20260902132027 23 221 3.2 6.4 0.00 0.00 0.00 99 1019.8
20260902131525 23 232 4.8 6.4 0.00 0.00 0.00 99 1019.7
20260902131017 23 235 3.2 6.4 0.00 0.00 0.00 99 1019.6
20260902130521 23 252 1.6 4.8 0.00 0.00 0.00 99 1019.6
20260902130019 22 0.0 0.0 0.00 0.00 0.00 99 1019.6
20260902125517 22 0.0 0.0 0.00 0.00 0.00 99 1019.6
20260902125015 22 234 0.0 3.2 0.00 0.00 0.00 99 1019.7
20260902124531 22 0.0 0.0 0.00 0.00 0.00 99 1019.7
20260902124023 22 203 0.0 3.2 0.00 0.00 0.00 99 1019.7
20260902123516 22 248 0.0 3.2 0.00 0.00 0.00 99 1019.6
20260902123027 22 0.0 0.0 0.00 0.00 0.00 99 1019.6
20260902122518 21 0.0 0.0 0.00 0.00 0.00 99 1019.6
20260902122028 21 0.0 0.0 0.00 0.00 0.00 99 1019.6
20260902121520 21 0.0 0.0 0.00 0.00 0.00 99 1019.6
20260902121031 21 0.0 0.0 0.00 0.00 0.00 99 1019.5
20260902120523 21 0.0 0.0 0.00 0.00 0.00 99 1019.5
20260902120033 21 0.0 0.0 0.00 0.00 0.00 99 1019.3
20260902115525 21 0.0 0.0 0.00 0.00 0.00 99 1019.3
20260902115017 21 0.0 0.0 0.00 0.00 0.00 99 1019.3
20260902114527 21 0.0 0.0 0.00 0.00 0.00 99 1019.3
20260902114020 21 0.0 0.0 0.00 0.00 0.00 99 1019.3
20260902113530 21 0.0 0.0 0.00 0.00 0.00 99 1019.1
20260902113023 21 0.0 0.0 0.00 0.00 0.00 99 1019.1
20260902112532 21 0.0 0.0 0.00 0.00 0.00 99 1019.2
20260902112024 21 0.0 0.0 0.00 0.00 0.00 99 1019.2
20260902111517 21 0.0 0.0 0.00 0.00 0.00 99 1019.2
20260902111027 21 0.0 0.0 0.00 0.00 0.00 99 1019.1
20260902110519 21 0.0 0.0 0.00 0.00 0.00 99 1019.1
20260902110029 21 0.0 0.0 0.00 0.00 0.00 99 1019.2
20260902105521 21 0.0 0.0 0.00 0.00 0.00 99 1019.2
20260902105032 21 308 3.2 6.4 0.00 0.00 0.00 99 1019.0
20260902104524 21 0.0 0.0 0.00 0.00 0.00 99 1019.0
20260902104016 21 0.0 0.0 0.00 0.00 0.00 99 1018.9
20260902103526 21 173 1.6 3.2 0.00 0.00 0.00 99 1018.9
20260902103025 21 0.0 0.0 0.00 0.00 0.00 99 1018.9
20260902102523 21 0.0 0.0 0.00 0.00 0.00 99 1018.8
20260902102015 21 0.0 0.0 0.00 0.00 0.00 99 1018.8
20260902101520 21 0.0 0.0 0.00 0.00 0.00 99 1018.8
20260902101017 21 0.0 0.0 0.00 0.00 0.00 99 1018.8
20260902100516 21 0.0 0.0 0.00 0.00 0.00 99 1018.8
20260902100020 21 0.0 0.0 0.00 0.00 0.00 99 1018.9
20260902095530 21 0.0 1.6 0.00 0.00 0.00 99 1018.9
20260902095022 21 0.0 0.0 0.00 0.00 0.00 99 1018.8
20260902094533 21 0.0 0.0 0.00 0.00 0.00 99 1018.8
20260902094025 21 0.0 0.0 0.00 0.00 0.00 99 1018.7
20260902093517 21 0.0 0.0 0.00 0.00 0.00 99 1018.7
20260902093027 21 0.0 0.0 0.00 0.00 0.00 99 1018.7
20260902092519 21 0.0 0.0 0.00 0.00 0.00 99 1018.6
20260902092029 21 158 0.0 3.2 0.00 0.00 0.00 99 1018.6
20260902091521 21 135 1.6 4.8 0.00 0.00 0.00 99 1018.6
20260902091032 21 124 0.0 3.2 0.00 0.00 0.00 99 1018.6
20260902090524 21 109 1.6 4.8 0.00 0.00 0.00 99 1018.6
20260902090016 22 0.0 0.0 0.00 0.00 0.00 99 1018.7
20260902085526 22 0.0 0.0 0.00 0.00 0.00 99 1018.7
20260902085018 22 0.0 0.0 0.00 0.00 0.00 99 1018.6
20260902084529 22 0.0 0.0 0.00 0.00 0.00 99 1018.5
20260902084021 22 0.0 0.0 0.00 0.00 0.00 99 1018.5
20260902083532 22 0.0 0.0 0.00 0.00 0.00 99 1018.5
20260902083023 22 0.0 0.0 0.00 0.00 0.00 99 1018.5
20260902082515 22 0.0 0.0 0.00 0.00 0.00 99 1018.4
20260902082026 22 0.0 0.0 0.00 0.00 0.00 99 1018.3
20260902081518 22 0.0 0.0 0.00 0.00 0.00 99 1018.4
20260902081028 22 0.0 0.0 0.00 0.00 0.00 99 1018.5
20260902080520 22 126 1.6 3.2 0.00 0.00 0.00 99 1018.5
20260902080031 22 98 1.6 3.2 0.00 0.00 0.00 99 1018.3
20260902075522 22 0.0 0.0 0.00 0.00 0.00 98 1018.3
20260902075027 22 0.0 0.0 0.00 0.00 0.00 98 1018.3
20260902074526 22 0.0 0.0 0.00 0.00 0.00 97 1018.3
20260902074017 22 0.0 0.0 0.00 0.00 0.00 97 1018.3
20260902073521 23 0.0 0.0 0.00 0.00 0.00 97 1018.3
20260902073019 23 180 0.0 3.2 0.00 0.00 0.00 97 1018.3
20260902072518 23 0.0 0.0 0.00 0.00 0.00 97 1018.3
20260902072016 23 0.0 0.0 0.00 0.00 0.00 96 1018.3
20260902071532 23 90 1.6 3.2 0.00 0.00 0.00 96 1018.3
20260902071024 23 90 0.0 3.2 0.00 0.00 0.00 95 1018.3
20260902070516 23 90 1.6 3.2 0.00 0.00 0.00 95 1018.4
20260902070027 23 252 1.6 3.2 0.00 0.00 0.00 94 1018.5
20260902065519 23 68 0.0 3.2 0.00 0.00 0.00 94 1018.5
20260902065029 23 222 1.6 3.2 0.00 0.00 0.00 94 1018.6
20260902064521 23 286 3.2 6.4 0.00 0.00 0.00 94 1018.6
20260902064032 23 0.0 0.0 0.00 0.00 0.00 93 1018.6
20260902063524 23 203 0.0 3.2 0.00 0.00 0.00 93 1018.6
20260902063016 23 0.0 3.2 0.00 0.00 0.00 93 1018.6
20260902062526 23 270 0.0 3.2 0.00 0.00 0.00 93 1018.7
20260902062018 23 227 1.6 3.2 0.00 0.00 0.00 93 1018.7
20260902061528 23 232 1.6 4.8 0.00 0.00 0.00 93 1018.6
20260902061020 23 225 0.0 3.2 0.00 0.00 0.00 92 1018.6
20260902060531 24 90 0.0 3.2 0.00 0.00 0.00 92 1018.6
20260902060023 24 0.0 1.6 0.00 0.00 0.00 92 1018.6
20260902055515 24 232 1.6 3.2 0.00 0.00 0.00 92 1018.6
20260902055026 24 0.0 1.6 0.00 0.00 0.00 91 1018.6
20260902054518 24 216 0.0 3.2 0.00 0.00 0.00 91 1018.6
20260902054023 24 0.0 0.0 0.00 0.00 0.00 91 1018.6
20260902053533 24 0.0 0.0 0.00 0.00 0.00 90 1018.5
20260902053025 25 0.0 0.0 0.00 0.00 0.00 90 1018.5
20260902052517 25 247 0.0 3.2 0.00 0.00 0.00 90 1018.3
20260902052027 25 235 1.6 4.8 0.00 0.00 0.00 90 1018.3
20260902051518 25 216 1.6 3.2 0.00 0.00 0.00 90 1018.3
20260902051029 25 238 1.6 4.8 0.00 0.00 0.00 90 1018.3
20260902050521 25 229 1.6 6.4 0.00 0.00 0.00 90 1018.3
20260902050025 25 236 3.2 8.0 0.00 0.00 0.00 90 1018.3
20260902045523 25 218 0.0 3.2 0.00 0.00 0.00 90 1018.3
20260902045015 25 272 1.6 3.2 0.00 0.00 0.00 90 1018.3
20260902044519 25 252 1.6 4.8 0.00 0.00 0.00 90 1018.3
20260902044018 25 233 1.6 6.4 0.00 0.00 0.00 91 1018.2
20260902043516 25 233 3.2 6.4 0.00 0.00 0.00 91 1018.2
20260902043020 25 286 4.8 8.0 0.00 0.00 0.00 91 1018.2
20260902042530 25 243 3.2 8.0 0.00 0.00 0.00 91 1018.1
20260902042022 25 217 4.8 6.4 0.00 0.00 0.00 91 1018.1
20260902041533 25 241 4.8 8.0 0.00 0.00 0.00 92 1018.1
20260902041025 25 228 3.2 6.4 0.00 0.00 0.00 92 1018.1
20260902040518 25 224 4.8 6.4 0.00 0.00 0.00 93 1018.1
20260902040027 25 233 4.8 8.0 0.00 0.00 0.00 93 1018.1
20260902035520 25 228 3.2 6.4 0.00 0.00 0.00 93 1018.1
20260902035030 25 230 4.8 6.4 0.00 0.00 0.00 93 1018.2
20260902034522 25 222 3.2 8.0 0.00 0.00 0.00 93 1018.3
20260902034029 25 238 3.2 4.8 0.00 0.00 0.00 93 1018.3
20260902033520 25 231 3.2 4.8 0.00 0.00 0.00 93 1018.3
20260902033029 25 230 1.6 4.8 0.00 0.00 0.00 93 1018.3
20260902032523 25 225 1.6 3.2 0.00 0.00 0.00 93 1018.4
20260902032031 25 229 1.6 4.8 0.00 0.00 0.00 93 1018.5
20260902031523 25 238 1.6 3.2 0.00 0.00 0.00 93 1018.4
20260902031016 25 225 0.0 3.2 0.00 0.00 0.00 93 1018.3
20260902030526 25 236 0.0 3.2 0.00 0.00 0.00 93 1018.3
20260902030019 25 0.0 1.6 0.00 0.00 0.00 93 1018.5
20260902025529 25 212 0.0 3.2 0.00 0.00 0.00 93 1018.5
20260902025021 25 0.0 0.0 0.00 0.00 0.00 93 1018.5
20260902024531 25 0.0 1.6 0.00 0.00 0.00 93 1018.5
20260902024023 25 0.0 0.0 0.00 0.00 0.00 93 1018.5
20260902023515 25 0.0 0.0 0.00 0.00 0.00 93 1018.5
20260902023026 25 225 0.0 3.2 0.00 0.00 0.00 93 1018.5
20260902022518 25 218 0.0 3.2 0.00 0.00 0.00 94 1018.3
20260902022028 25 222 1.6 3.2 0.00 0.00 0.00 94 1018.3
20260902021520 25 213 1.6 3.2 0.00 0.00 0.00 94 1018.3
20260902021025 25 213 1.6 4.8 0.00 0.00 0.00 94 1018.3
20260902020523 25 203 1.6 4.8 0.00 0.00 0.00 94 1018.3
20260902020021 25 225 0.0 3.2 0.00 0.00 0.00 95 1018.3
20260902015519 25 203 0.0 1.6 0.00 0.00 0.00 95 1018.3
20260902015017 25 0.0 0.0 0.00 0.00 0.00 95 1018.3
20260902014515 25 0.0 0.0 0.00 0.00 0.00 95 1018.3
20260902014020 25 0.0 0.0 0.00 0.00 0.00 96 1018.2
20260902013530 25 0.0 0.0 0.00 0.00 0.00 96 1018.2
20260902013022 25 0.0 0.0 0.00 0.00 0.00 95 1018.2
20260902012532 25 0.0 0.0 0.00 0.00 0.00 95 1018.1
20260902012025 25 0.0 0.0 0.00 0.00 0.00 94 1018.1